This is the latest recevied weather packets stored in our database for station/object HB3YKO-13. If no packets are shown the sender has not sent any weather packets the latest 10 day(s).
| Time | Temp. | Humidity | Pressure | Rain* | Wind** | Luminosity | Snow |
|---|---|---|---|---|---|---|---|
| 1777824288 | -10° C | 65% | 0 hPa | 0 mm | - | - | - |
| 1777823988 | -10° C | 65% | 0 hPa | 0 mm | - | - | - |
| 1777823688 | -10.56° C | 67% | 0 hPa | 0 mm | - | - | - |
| 1777823388 | -10° C | 68% | 0 hPa | 0 mm | - | - | - |
| 1777823088 | -11.67° C | 69% | 0 hPa | 0 mm | - | - | - |
| 1777822788 | -11.67° C | 69% | 0 hPa | 0 mm | - | - | - |
| 1777822488 | -11.67° C | 68% | 0 hPa | 0 mm | - | - | - |
| 1777822188 | -12.22° C | 67% | 0 hPa | 0 mm | - | - | - |
| 1777821888 | -11.67° C | 65% | 0 hPa | 0 mm | - | - | - |
| 1777821588 | -12.22° C | 64% | 0 hPa | 0 mm | - | - | - |
| 1777821288 | -12.22° C | 62% | 0 hPa | 0 mm | - | - | - |
| 1777820988 | -17.78° C | 61% | 0 hPa | 0 mm | - | - | - |
| 1777820688 | -17.78° C | 60% | 0 hPa | 0 mm | - | - | - |
| 1777820388 | -17.78° C | 62% | 0 hPa | 0 mm | - | - | - |
| 1777820088 | -17.78° C | 59% | 0 hPa | 0 mm | - | - | - |
| 1777819788 | -17.78° C | 58% | 0 hPa | 0 mm | - | - | - |
| 1777819488 | -17.78° C | 57% | 0 hPa | 0 mm | - | - | - |
| 1777819188 | -17.78° C | 56% | 0 hPa | 0 mm | - | - | - |
| 1777818888 | -17.78° C | 54% | 0 hPa | 0 mm | - | - | - |
| 1777818588 | -17.78° C | 51% | 0 hPa | 0 mm | - | - | - |
| 1777818288 | -17.78° C | 51% | 0 hPa | 0 mm | - | - | - |
| 1777817988 | -17.78° C | 50% | 0 hPa | 0 mm | - | - | - |
| 1777817688 | -17.78° C | 50% | 0 hPa | 0 mm | - | - | - |
| 1777817388 | -17.78° C | 52% | 0 hPa | 0 mm | - | - | - |
| 1777817088 | -17.78° C | 52% | 0 hPa | 0 mm | - | - | - |
* Rain latest hour (hover to see other rain measurements)
** Current wind speed in m/s (hover to see current wind gust speed)